Effective Sunday, March 17, 2024, the National Weather Service National Data Buoy Center will discontinue its Dial-A-Buoy Interactive Voice Response system. For more information, see Service Change Notice 24-06 (PDF).

Station ADKA2 - 9461380 - Adak Island, AK Image indicating link to RSS feed of recent meteorological observations for station ADKA2


Conditions at ADKA2 as of
(2:18 am HAST)
1218 GMT on 03/03/2024:
     

Click on the graph icon in the table below to see a time series plot of the last five days of that observation.

5-day plot - Wind Direction Wind Direction (WDIR):WSW ( 250 deg true )
5-day plot - Wind Speed Wind Speed (WSPD): 21.0 kts
5-day plot - Wind Gust Wind Gust (GST): 26.0 kts
5-day plot - Atmospheric Pressure Atmospheric Pressure (PRES):29.47 in
5-day plot - Air Temperature Air Temperature (ATMP): 38.1 °F
5-day plot - Water Temperature Water Temperature (WTMP): 38.8 °F
5-day plot - Wind Chill Wind Chill (CHILL): 27.1 °F
5-day plot - Wind Speed at 10 Meters Wind Speed at 10 meters (WSPD10M): 21.4 kts
5-day plot - Wind Speed at 20 Meters Wind Speed at 20 meters (WSPD20M): 23.3 kts
5-day plot -  Wind Speed, Wind Gust and Atmospheric Pressure Combined plot of Wind Speed, Gust, and Air Pressure
NOS Water Level Observation Network Water Level
Previous observations
TIME
(HAST)
5-day plot - Wind Direction
WDIR
 
5-day plot - Wind Speed
WSPD
kts
5-day plot - Wind Gust
GST
kts
5-day plot - Wave Height
WVHT
ft
5-day plot - Dominant Wave Period
DPD
sec
5-day plot - Average Wave Period
APD
sec
5-day plot - Mean Wave Direction
MWD
 
5-day plot - Atmospheric Pressure
PRES
in
5-day plot - Pressure Tendency
PTDY
in
5-day plot - Air Temperature
ATMP
°F
5-day plot - Water Temperature
WTMP
°F
5-day plot - Dew Point
DEWP
°F
5-day plot - Salinity
SAL
psu
5-day plot - Visibility
VIS
nmi
5-day plot - Tide (above MLLW)
TIDE
ft
2024-03-03 02:12 am W 19.0 25.1----29.46- 38.3 38.8----
2024-03-03 02:06 am W 15.9 22.0----29.46- 38.1 38.8----
2024-03-03 02:00 am W 18.1 25.1----29.46+0.04 38.3 38.8----
2024-03-03 01:54 am W 22.9 29.9----29.45- 38.7 38.8----
2024-03-03 01:48 am W 20.0 29.9----29.45- 38.7 38.8----
2024-03-03 01:42 am W 22.0 28.0----29.45- 38.7 38.8----
2024-03-03 01:36 amWSW 25.1 28.9----29.44- 38.8 38.8----
2024-03-03 01:30 am W 22.0 25.1----29.44- 38.8 38.8----
2024-03-03 01:24 am W 20.0 25.1----29.44- 38.7 38.8----
2024-03-03 01:18 amWSW 19.0 25.1----29.44- 38.8 38.8----
2024-03-03 01:12 amWSW 21.0 28.9----29.44- 38.8 38.8----
2024-03-03 01:06 amWSW 21.0 28.0----29.43- 38.8 38.8----
2024-03-03 01:00 amWSW 22.9 28.0----29.43+0.04- 38.8----
2024-03-03 12:54 am W 18.1 21.0----29.43-- 38.8----
2024-03-03 12:48 am W 18.1 26.0----29.43- 39.0 38.8----
2024-03-03 12:42 amWSW 22.9 29.9----29.42- 39.2 38.8----
2024-03-03 12:36 amWSW 25.1 31.1----29.41- 39.2 38.8----
2024-03-03 12:30 amWSW 24.1 28.9----29.41- 39.4 38.8----
2024-03-03 12:24 amWSW 22.0 26.0----29.41- 39.0 38.8----
2024-03-03 12:18 am W 22.9 27.0----29.41- 38.8 38.8----
2024-03-03 12:12 am W 20.0 28.9----29.41- 39.0 38.8----
2024-03-03 12:06 am W 22.9 26.0----29.41- 39.2 38.8----
2024-03-03 12:00 am W 20.0 24.1----29.41+0.00 39.2 38.8----
2024-03-02 11:54 pm W 18.1 22.0----29.41- 39.2 38.8----
2024-03-02 11:48 pm W 19.0 24.1----29.41- 39.2 38.8----
2024-03-02 11:42 pm W 17.1 21.0----29.41- 39.2 38.8----
2024-03-02 11:36 pm W 15.9 22.9----29.41- 39.2 38.8----
2024-03-02 11:30 pm W 21.0 26.0----29.41- 39.4 38.8----
2024-03-02 11:24 pmWSW 24.1 28.0----29.41- 39.6 38.8----
2024-03-02 11:18 pmWSW 21.0 28.0----29.41- 39.6 38.8----
2024-03-02 11:12 pmWSW 20.0 25.1----29.41- 39.6 38.8----
2024-03-02 11:06 pmWSW 19.0 22.0----29.41- 39.7 38.8----
2024-03-02 11:00 pmWSW 17.1 21.0----29.41-0.01 40.1 38.8----
2024-03-02 10:54 pmWSW 15.0 21.0----29.41- 40.5 38.8----
2024-03-02 10:48 pmWSW 17.1 26.0----29.41- 40.6 38.8----
2024-03-02 10:42 pmWSW 17.1 20.0----29.41- 41.2 38.8----
2024-03-02 10:36 pm SW 15.0 20.0----29.41- 41.0 38.8----
2024-03-02 10:30 pmWSW 14.0 17.1----29.40- 41.4 38.8----
2024-03-02 10:24 pm W 12.0 15.9----29.40- 41.0 38.8----
2024-03-02 10:18 pmWSW 13.0 17.1----29.40- 41.0 38.8----
2024-03-02 10:12 pmWSW 12.0 15.9----29.40- 41.2 38.8----
2024-03-02 10:06 pmWSW 5.1 11.1----29.40- 41.7 38.8----
2024-03-02 10:00 pm SW 2.9 6.0----29.40-0.04 41.9 38.8----
2024-03-02 09:54 pm SE 1.9 7.0----29.39- 41.7 38.8----
2024-03-02 09:48 pm S 7.0 8.9----29.40- 41.9 38.8----
2024-03-02 09:42 pmSSW 6.0 11.1----29.40- 41.7 38.8----
2024-03-02 09:36 pmSSW 8.0 9.9----29.40- 41.7 38.8----
2024-03-02 09:30 pm SW 6.0 17.1----29.41- 41.5 38.8----
2024-03-02 09:24 pm SW 11.1 14.0----29.41- 41.9 38.8----
2024-03-02 09:18 pm SW 9.9 15.0----29.41- 41.5 38.8----
2024-03-02 09:12 pmSSW 11.1 15.0----29.41- 41.9 38.8----
2024-03-02 09:06 pmSSW 9.9 15.0----29.41- 42.1 38.8----
2024-03-02 09:00 pm S 8.0 15.9----29.41-0.06 41.9 38.8----
2024-03-02 08:54 pm S 11.1 15.9----29.42- 41.9 38.8----
2024-03-02 08:48 pm S 9.9 15.0----29.42- 41.7 38.8----
2024-03-02 08:42 pm S 12.0 15.9----29.42- 41.5 38.8----
2024-03-02 08:36 pm S 9.9 15.9----29.42- 41.2 38.8----
2024-03-02 08:30 pm S 11.1 15.9----29.42- 41.0 38.8----
2024-03-02 08:24 pm S 12.0 15.0----29.42- 40.8 38.8----
2024-03-02 08:18 pm S 12.0 19.0----29.42- 40.6 38.8----
2024-03-02 08:12 pm S 13.0 21.0----29.42- 40.5 38.8----
2024-03-02 08:06 pm S 13.0 18.1----29.43- 40.6 38.8----
2024-03-02 08:00 pm S 14.0 18.1----29.43-0.09 40.5 38.8----
2024-03-02 07:54 pm S 11.1 17.1----29.43- 40.3 38.8----
2024-03-02 07:48 pm S 13.0 17.1----29.44- 40.5 38.8----
2024-03-02 07:42 pm S 14.0 21.0----29.44- 40.1 38.8----
2024-03-02 07:36 pm S 13.0 21.0----29.44- 40.1 38.8----
2024-03-02 07:30 pm S 12.0 19.0----29.44- 39.9 38.8----
2024-03-02 07:24 pm S 15.0 20.0----29.44- 39.7 38.8----
2024-03-02 07:18 pm S 12.0 17.1----29.44- 39.6 38.8----
2024-03-02 07:12 pm S 15.0 18.1----29.44- 39.6 38.8----
2024-03-02 07:06 pm S 14.0 20.0----29.44- 39.6 38.8----
2024-03-02 07:00 pm S 15.0 21.0----29.44-0.11 39.4 38.8----
2024-03-02 06:54 pm S 17.1 22.0----29.44- 39.2 38.8----
2024-03-02 06:48 pm S 15.9 22.9----29.45- 39.4 38.8----
2024-03-02 06:42 pm S 19.0 24.1----29.45- 39.2 38.8----
2024-03-02 06:36 pm S 20.0 25.1----29.45- 39.4 38.8----
2024-03-02 06:30 pm S 18.1 24.1----29.46- 39.0 38.8----
2024-03-02 06:24 pm S 18.1 22.9----29.45- 39.0 38.8----
2024-03-02 06:18 pm S 19.0 22.9----29.46- 39.2 38.8----
2024-03-02 06:12 pm S 19.0 26.0----29.46- 39.0 38.8----
2024-03-02 06:06 pm S 22.0 25.1----29.47- 38.8 38.8----
2024-03-02 06:00 pm S 19.0 24.1----29.47-0.11 38.7 38.8----
2024-03-02 05:54 pm S 18.1 25.1----29.47- 38.7 38.8----
2024-03-02 05:48 pm S 21.0 27.0----29.48- 38.7 38.8----
2024-03-02 05:42 pm S 21.0 26.0----29.48- 38.5 38.8----
2024-03-02 05:36 pm S 19.0 25.1----29.49- 38.1 38.8----
2024-03-02 05:30 pm S 20.0 22.9----29.49- 37.9 38.8----
2024-03-02 05:24 pm S 19.0 24.1----29.50- 37.8 38.8----
2024-03-02 05:18 pm S 17.1 22.0----29.50- 37.6 38.8----
2024-03-02 05:12 pm S 17.1 22.9----29.51- 37.2 38.8----
2024-03-02 05:06 pm S 17.1 20.0----29.52- 36.9 38.8----
2024-03-02 05:00 pm S 17.1 21.0----29.52-0.09 37.0 38.8----
2024-03-02 04:54 pm S 17.1 22.0----29.52- 36.9 38.8----
2024-03-02 04:48 pm S 15.9 22.0----29.52- 36.5 38.8----
2024-03-02 04:42 pm S 19.0 26.0----29.52- 36.5 38.8----
2024-03-02 04:36 pm S 20.0 25.1----29.52- 37.2 38.8----
2024-03-02 04:30 pm S 21.0 25.1----29.52- 37.2 38.8----
2024-03-02 04:24 pm S 17.1 22.9----29.53- 36.9 38.8----
2024-03-02 04:18 pm S 17.1 21.0----29.53- 36.3 38.8----
2024-03-02 04:12 pm S 15.9 21.0----29.54- 36.1 38.8----
2024-03-02 04:06 pm S 17.1 22.0----29.54- 36.1 38.8----
2024-03-02 04:00 pm S 17.1 21.0----29.54-0.11 36.5 38.8----
2024-03-02 03:54 pm S 17.1 22.0----29.55- 36.7 38.8----
2024-03-02 03:48 pm S 9.9 15.9----29.56- 36.7 38.8----
2024-03-02 03:42 pm S 14.0 21.0----29.56- 36.7 38.8----
2024-03-02 03:36 pm S 13.0 20.0----29.57- 37.0 38.8----
2024-03-02 03:30 pm S 8.9 18.1----29.57- 37.2 38.8----
2024-03-02 03:24 pm S 7.0 11.1----29.57- 37.2 38.8----
2024-03-02 03:18 pm S 6.0 17.1----29.57- 37.6 38.8----
2024-03-02 03:12 pm S 8.9 14.0----29.58- 37.8 38.8----
2024-03-02 03:06 pm S 5.1 9.9----29.58- 37.9 38.8----
2024-03-02 03:00 pm SW 5.1 9.9----29.58-0.07 38.1 38.8----
2024-03-02 02:54 pmSSW 8.9 22.0----29.59- 38.3 38.8----
2024-03-02 02:48 pmSSW 8.9 14.0----29.59- 38.1 38.8----
2024-03-02 02:42 pm S 5.1 12.0----29.59- 38.1 38.8----
2024-03-02 02:36 pm S 8.9 14.0----29.60- 38.3 38.8----
2024-03-02 02:30 pmSSW 8.0 9.9----29.60- 38.1 38.8----
2024-03-02 02:24 pm S 12.0 15.9----29.60- 38.1 38.8----
2024-03-02 02:18 pm S 12.0 19.0----29.60- 38.1 38.8----
2024-03-02 02:12 pm S 14.0 19.0----29.61- 38.1 38.8----
2024-03-02 02:06 pm S 12.0 15.0----29.61- 38.1 38.8----
2024-03-02 02:00 pmSSW 13.0 20.0----29.61-0.04 38.1 38.8----
2024-03-02 01:54 pmSSW 15.9 19.0----29.62- 38.3 38.8----
2024-03-02 01:48 pmSSW 13.0 18.1----29.62-- 38.8----
2024-03-02 01:42 pmSSW 12.0 18.1----29.63-- 38.8----
2024-03-02 01:36 pmSSW 15.9 21.0----29.64-- 38.8----
2024-03-02 01:30 pmSSW 14.0 19.0----29.64- 38.5 38.8----
2024-03-02 01:24 pmSSW 17.1 21.0----29.65- 38.5 38.8----
2024-03-02 01:18 pm SW 15.9 21.0----29.65-- 38.8----
2024-03-02 01:12 pm SW 15.9 17.1----29.65-- 38.8----
2024-03-02 01:00 pmSSW 15.9 20.0----29.65- 37.9 38.8----
2024-03-02 12:54 pm SW 18.1 21.0----29.65- 37.9 38.8----
2024-03-02 12:48 pmSSW 19.0 21.0----29.66- 37.9 38.8----
2024-03-02 12:42 pm SW 18.1 21.0----29.65- 38.1 38.8----
2024-03-02 12:36 pmSSW 17.1 21.0----29.65- 38.3 38.8----
2024-03-02 12:30 pmSSW 11.1 19.0----29.66-- 38.8----
2024-03-02 12:24 pmSSW 14.0 15.9----29.66-- 38.8----
2024-03-02 12:18 pmSSW 13.0 19.0----29.65-- 38.8----
2024-03-02 12:12 pmSSW 12.0 14.0----29.65-- 38.7----
2024-03-02 12:06 pmSSW 13.0 18.1----29.65-- 38.7----
2024-03-02 12:00 pmSSW 12.0 13.0----29.65+0.02 38.1 38.7----
2024-03-02 11:54 am SW 9.9 15.9----29.65- 38.3 38.7----
2024-03-02 11:48 am SW 14.0 15.9----29.65- 38.3 38.7----
2024-03-02 11:42 am SW 15.0 18.1----29.65- 38.1 38.7----
2024-03-02 11:36 am SW 13.0 19.0----29.64- 37.9 38.7----
2024-03-02 11:30 amWSW 18.1 20.0----29.64- 37.6-----
2024-03-02 11:24 amWSW 15.0 20.0----29.65- 37.6-----
2024-03-02 11:18 am SW 17.1 20.0----29.65- 38.3 38.7----
2024-03-02 11:12 amWSW 15.9 21.0----29.65- 38.3 38.7----
2024-03-02 11:06 am SW 17.1 22.0----29.65- 38.7 38.7----
2024-03-02 11:00 amWSW 19.0 22.0----29.65+0.02 38.7 38.7----
2024-03-02 10:54 am SW 15.9 21.0----29.65- 38.8 38.7----
2024-03-02 10:48 am SW 17.1 20.0----29.65-- 38.7----
2024-03-02 10:42 amWSW 17.1 21.0----29.65-- 38.7----
2024-03-02 10:36 amWSW 15.9 20.0----29.65-- 38.7----
2024-03-02 10:30 amWSW 15.9 19.0----29.65- 38.8 38.7----
2024-03-02 10:24 amWSW 17.1 19.0----29.64- 38.7 38.7----
2024-03-02 10:18 amWSW 15.0 17.1----29.64- 38.7 38.7----
2024-03-02 10:12 amWSW 15.0 19.0----29.64- 38.7 38.7----
2024-03-02 10:06 amWSW 15.0 19.0----29.64- 38.7 38.7----
2024-03-02 10:00 am--------- 38.7-----
2024-03-02 09:54 am--------- 38.5-----
2024-03-02 09:48 amWSW 15.0 17.1----29.64- 38.5 38.7----
2024-03-02 09:42 amWSW 15.9 18.1----29.64- 38.3 38.7----
2024-03-02 09:36 amWSW 15.9 19.0----29.64- 38.5 38.7----
2024-03-02 09:30 amWSW 15.9 18.1----29.64- 38.3 38.7----
2024-03-02 09:24 amWSW 17.1 19.0----29.64- 38.3 38.7----
2024-03-02 09:18 amWSW 14.0 17.1----29.64- 38.3 38.7----
2024-03-02 09:12 amWSW 15.9 21.0----29.64- 38.3 38.7----
2024-03-02 09:06 amWSW 18.1 22.0----29.63- 38.3 38.7----
2024-03-02 09:00 amWSW 18.1 24.1----29.63+0.03 38.3 38.7----
2024-03-02 08:54 amWSW 21.0 24.1----29.63- 38.3 38.7----
2024-03-02 08:48 amWSW 21.0 24.1----29.63- 38.1 38.7----
2024-03-02 08:42 amWSW 19.0 24.1----29.63- 38.3 38.7----
2024-03-02 08:36 amWSW 19.0 21.0----29.63- 38.3 38.7----
2024-03-02 08:30 amWSW 18.1 20.0----29.62- 38.1 38.7----
2024-03-02 08:24 amWSW 17.1 20.0----29.62- 38.1 38.7----
2024-03-02 08:18 amWSW 15.9 20.0----29.62- 37.9 38.7----
2024-03-02 08:12 amWSW 17.1 19.0----29.63- 38.1 38.7----
2024-03-02 08:06 amWSW 15.9 20.0----29.63- 38.1 38.7----
2024-03-02 08:00 amWSW 17.1 20.0----29.63+0.04 38.1 38.7----
2024-03-02 07:54 amWSW 17.1 19.0----29.62- 38.3 38.7----
2024-03-02 07:48 amWSW 14.0 20.0----29.62- 37.9 38.7----
2024-03-02 07:42 amWSW 17.1 19.0----29.62- 37.8 38.7----
2024-03-02 07:36 amWSW 15.9 20.0----29.62- 38.3 38.7----
2024-03-02 07:30 amWSW 17.1 19.0----29.62- 38.5 38.7----
2024-03-02 07:24 amWSW 15.0 17.1----29.62- 38.3 38.7----
2024-03-02 07:18 amWSW 12.0 14.0----29.62- 38.1 38.7----
2024-03-02 07:12 amWSW 12.0 13.0----29.61- 37.9 38.7----
2024-03-02 07:06 amWSW 12.0 17.1----29.61- 37.9 38.7----
2024-03-02 07:00 amWSW 15.0 20.0----29.60+0.02 37.9 38.7----
2024-03-02 06:54 amWSW 18.1 21.0----29.60- 37.9 38.7----
2024-03-02 06:48 amWSW 19.0 22.0----29.59- 38.1 38.7----
2024-03-02 06:42 amWSW 17.1 20.0----29.59- 38.1 38.7----
2024-03-02 06:36 am SW 15.9 20.0----29.60- 38.3 38.7----
2024-03-02 06:30 am SW 15.0 17.1----29.60- 38.1 38.7----
2024-03-02 06:24 am SW 14.0 15.0----29.60- 38.1 38.8----
2024-03-02 06:18 am SW 12.0 15.0----29.60- 37.9 38.8----
2024-03-02 06:12 amWSW 13.0 15.0----29.60- 37.9 38.8----
2024-03-02 06:06 amWSW 11.1 17.1----29.60- 37.8 38.8----
2024-03-02 06:00 amWSW 13.0 15.9----29.60+0.02 37.9 38.8----
2024-03-02 05:54 amWSW 8.9 12.0----29.60- 37.9 38.8----
2024-03-02 05:48 amWSW 11.1 13.0----29.60- 37.9 38.7----
2024-03-02 05:42 amWSW 8.9 11.1----29.59- 38.1 38.8----
2024-03-02 05:36 am W 8.9 15.0----29.59- 38.1 38.7----
2024-03-02 05:30 amWSW 8.9 11.1----29.59-- 38.7----
2024-03-02 05:24 am W 11.1 12.0----29.59-- 38.7----
2024-03-02 05:18 am W 12.0 13.0----29.59- 38.1 38.7----
2024-03-02 05:12 am W 6.0 8.9----29.59- 37.9 38.7----
2024-03-02 05:06 amWSW 6.0 8.9----29.59- 37.9 38.7----
2024-03-02 05:00 amWSW 8.9 9.9----29.59+0.03 38.1 38.7----
2024-03-02 04:54 amWSW 7.0 9.9----29.58- 38.1 38.7----
2024-03-02 04:48 amWSW 8.9 9.9----29.58- 38.3 38.7----
2024-03-02 04:42 am SW 8.9 13.0----29.58- 38.3 38.7----
2024-03-02 04:36 amWSW 11.1 14.0----29.58- 38.3 38.7----
2024-03-02 04:30 amWSW 13.0 15.0----29.57- 38.5 38.7----
2024-03-02 04:24 amWSW 12.0 15.0----29.57- 38.3 38.7----
2024-03-02 04:18 amWSW 11.1 15.0----29.57- 38.5 38.7----
2024-03-02 04:12 amWSW 12.0 15.0----29.58- 38.5 38.7----
2024-03-02 04:06 amWSW 8.0 13.0----29.58- 38.5 38.7----
2024-03-02 04:00 amWSW 9.9 15.9----29.58+0.03 38.5 38.7----
2024-03-02 03:54 amWSW 14.0 17.1----29.58- 38.5 38.7----
2024-03-02 03:48 amWSW 14.0 18.1----29.58- 38.3 38.7----
2024-03-02 03:42 amWSW 13.0 17.1----29.58- 38.1 38.7----
2024-03-02 03:36 amWSW 14.0 17.1----29.58- 38.1 38.7----
2024-03-02 03:30 amWSW 12.0 14.0----29.58- 38.1 38.7----
2024-03-02 03:24 amWSW 15.9 19.0----29.58- 38.3 38.7----
2024-03-02 03:18 am SW 17.1 19.0----29.58- 38.3 38.7----
2024-03-02 03:12 am SW 14.0 17.1----29.58- 38.1 38.7----
2024-03-02 03:06 amWSW 13.0 17.1----29.58- 38.3 38.7----
2024-03-02 03:00 amWSW 12.0 15.0----29.58+0.04 37.9 38.7----
2024-03-02 02:54 amWSW 9.9 12.0----29.58- 37.6 38.7----
2024-03-02 02:48 amWSW 8.9 13.0----29.58-- 38.7----
2024-03-02 02:42 amWSW 9.9 15.9----29.57-- 38.8----
2024-03-02 02:36 amWSW 11.1 15.9----29.57-- 38.8----
2024-03-02 02:30 amWSW 11.1 15.0----29.57- 37.4 38.8----
2024-03-02 02:24 amWSW 11.1 15.9----29.57- 37.2 38.8----
2024-03-02 02:18 amWSW 12.0 17.1----29.57- 37.2 38.8----
2024-03-02 02:12 amWSW 15.0 17.1----29.57- 37.0 38.8----
2024-03-02 02:06 amWSW 13.0 21.0----29.57- 37.0 38.8----
2024-03-02 02:00 am W 13.0 21.0----29.56+0.03 37.0 38.8----
2024-03-02 01:54 am W 19.0 21.0----29.56- 37.0 38.8----